Simultaneous Nadir Overpasses (SNOs) Predictions

Prediction of SNOs between METOP-A and TERRA Satellite Orbit:

Table of predicted SNOs for the next 14.0 days since TLE Epoch: 3/29/2014
Index Date (METOP-A) Time (METOP-A) Lat,Lon (METOP-A) SZA (METOP-A ) Date (TERRA) Time (TERRA) Lat,Lon (TERRA) SZA (TERRA ) Distance(km) Time Diff (sec)
1 03/29/2014 11:55:01 -81.31,-131.36 99.47 03/29/2014 11:56:10 -81.32,-131.37 99.44 0.50 69
2 03/29/2014 12:45:40 81.32, 36.55 80.59 03/29/2014 12:45:36 81.32, 36.39 80.57 2.78 4
3 04/01/2014 07:29:26 -81.31, -64.99 100.53 04/01/2014 07:30:27 -81.32, -64.85 100.48 2.61 61
4 04/01/2014 08:20:05 81.32, 102.90 79.52 04/01/2014 08:19:53 81.33, 102.88 79.52 0.89 12
5 04/04/2014 03:03:50 -81.31, 1.30 101.60 04/04/2014 03:04:43 -81.31, 1.32 101.58 0.49 53
6 04/04/2014 03:54:29 81.32, 169.16 78.46 04/04/2014 03:54:09 81.31, 169.01 78.43 2.63 20
7 04/06/2014 22:38:14 -81.32, 67.90 102.61 04/06/2014 22:38:58 -81.32, 67.88 102.60 0.36 44
8 04/06/2014 23:28:53 81.32,-124.26 77.44 04/06/2014 23:28:24 81.32,-124.45 77.40 3.25 29
9 04/09/2014 18:12:38 -81.32, 134.41 103.62 04/09/2014 18:13:12 -81.32, 134.46 103.60 1.05 34




NCC Satellite Simultaneous Nadir Overpasses (SNOs) Prediction Service
